Weather History for Galesburg, IL

Change the Weather History Date:

Wednesday, October 31, 2012

  Actual Average Record
Temperature  
Mean Temperature 38 °F -  
Max Temperature 50 °F 59 °F 86 °F (1950)
Min Temperature 25 °F 41 °F 23 °F (1993)
Degree Days  
Heating Degree Days 28    
Moisture  
Dew Point 22 °F    
Average Humidity 62    
Maximum Humidity 88    
Minimum Humidity 26    
Precipitation  
Precipitation 0.00 in - - ()
Sea Level Pressure  
Sea Level Pressure 29.93 in    
Wind  
Wind Speed 9 mph (NW)    
Max Wind Speed 18 mph    
Max Gust Speed 24 mph    
Visibility 10 miles    
Events      
Averages and records for this station are not official NWS values.
T = Trace of Precipitation, MM = Missing Value Source: NWS Daily Summary

Daily Weather History Graph

Daily Weather History Graph

Search for Another Location

Airport:

Trip Planner

Search our weather history database for the weather conditions in past years. The results will help you decide how hot, cold, wet, or windy it might be!

Date:

Astronomy

Oct. 31, 2012 Rise Set
Actual Time 7:31 AM CDT 5:58 PM CDT
Civil Twilight 7:03 AM CDT 6:26 PM CDT
Nautical Twilight 6:30 AM CDT 6:59 PM CDT
Astronomical Twilight 5:58 AM CDT 7:31 PM CDT
Moon 7:08 PM CDT (10/31) 9:13 AM CDT (10/31)
Length of Visible Light 11h 23m
Length of Day
10h 26m
Full, 97% of the Moon is Illuminated
Oct 31
Full
Nov 6
Last Quarter
Nov 13
New
Nov 20
First Quarter
Nov 28
Full

Hourly Weather History & Observations

Time (CDT) Temp. Windchill Dew Point Humidity Pressure Visibility Wind Dir Wind Speed Gust Speed Precip Events Conditions
12:15 AM 30.2 °F 24.3 °F 24.1 °F 78% 29.90 in 10.0 mi NW 5.8 mph - N/A   Clear
12:35 AM 30.0 °F 23.2 °F 23.9 °F 78% 29.90 in 10.0 mi WNW 6.9 mph - N/A   Clear
12:55 AM 29.8 °F 22.2 °F 24.3 °F 80% 29.91 in 10.0 mi WNW 8.1 mph - N/A   Clear
1:15 AM 30.9 °F 24.3 °F 24.8 °F 78% 29.91 in 10.0 mi NW 6.9 mph - N/A   Clear
1:35 AM 31.8 °F 23.9 °F 25.2 °F 76% 29.91 in 10.0 mi NW 9.2 mph - N/A   Clear
1:55 AM 31.1 °F 23.7 °F 25.2 °F 79% 29.91 in 10.0 mi NW 8.1 mph - N/A   Clear
2:15 AM 31.8 °F 24.6 °F 25.3 °F 77% 29.91 in 10.0 mi NW 8.1 mph - N/A   Clear
2:35 AM 31.3 °F 23.9 °F 25.2 °F 78% 29.91 in 10.0 mi NW 8.1 mph - N/A   Clear
2:55 AM 30.4 °F 22.2 °F 24.8 °F 80% 29.92 in 10.0 mi WNW 9.2 mph - N/A   Clear
3:15 AM 30.0 °F 22.4 °F 24.8 °F 81% 29.92 in 10.0 mi NW 8.1 mph - N/A   Clear
3:35 AM 30.0 °F 22.4 °F 24.8 °F 81% 29.92 in 10.0 mi NW 8.1 mph - N/A   Clear
3:55 AM 29.3 °F 22.3 °F 24.4 °F 82% 29.91 in 10.0 mi WNW 6.9 mph - N/A   Clear
4:15 AM 30.2 °F 22.6 °F 24.8 °F 80% 29.91 in 10.0 mi NW 8.1 mph - N/A   Clear
4:35 AM 28.8 °F 20.9 °F 24.3 °F 83% 29.91 in 10.0 mi NW 8.1 mph - N/A   Clear
4:55 AM 28.4 °F 21.2 °F 24.1 °F 84% 29.92 in 10.0 mi NW 6.9 mph - N/A   Clear
5:15 AM 28.0 °F 20.8 °F 23.9 °F 84% 29.92 in 10.0 mi NW 6.9 mph - N/A   Clear
5:35 AM 27.9 °F 19.8 °F 23.9 °F 85% 29.92 in 10.0 mi NW 8.1 mph - N/A   Clear
5:55 AM 27.3 °F 19.9 °F 23.5 °F 86% 29.92 in 10.0 mi NW 6.9 mph - N/A   Clear
6:15 AM 26.6 °F 19.1 °F 23.0 °F 86% 29.92 in 10.0 mi NW 6.9 mph - N/A   Clear
6:35 AM 26.4 °F 19.8 °F 23.0 °F 87% 29.92 in 10.0 mi NW 5.8 mph - N/A   Clear
6:55 AM 25.7 °F 19.0 °F 22.5 °F 88% 29.93 in 10.0 mi NW 5.8 mph - N/A   Clear
7:15 AM 25.7 °F 17.1 °F 22.6 °F 88% 29.93 in 10.0 mi NW 8.1 mph - N/A   Clear
7:35 AM 25.5 °F 16.9 °F 22.3 °F 88% 29.93 in 10.0 mi WNW 8.1 mph - N/A   Clear
7:55 AM 26.1 °F 19.4 °F 23.0 °F 88% 29.94 in 10.0 mi NW 5.8 mph - N/A   Clear
8:15 AM 26.8 °F 18.5 °F 23.5 °F 88% 29.94 in 10.0 mi NW 8.1 mph - N/A   Clear
8:35 AM 28.6 °F 18.7 °F 24.6 °F 85% 29.94 in 10.0 mi WNW 11.5 mph - N/A   Clear
8:55 AM 30.4 °F 20.5 °F 25.2 °F 81% 29.95 in 10.0 mi NW 12.7 mph 16.1 mph N/A   Clear
9:15 AM 31.6 °F 22.6 °F 25.5 °F 78% 29.94 in 10.0 mi NW 11.5 mph - N/A   Clear
9:35 AM 32.0 °F 23.0 °F 25.5 °F 77% 29.94 in 10.0 mi NW 11.5 mph - N/A   Clear
9:55 AM 33.3 °F 24.6 °F 26.4 °F 76% 29.95 in 10.0 mi NW 11.5 mph - N/A   Clear
10:15 AM 35.6 °F 27.1 °F 27.0 °F 71% 29.95 in 10.0 mi NW 12.7 mph - N/A   Clear
10:35 AM 36.7 °F 29.9 °F 27.1 °F 68% 29.95 in 10.0 mi NNW 9.2 mph - N/A   Clear
10:55 AM 38.3 °F 31.4 °F 27.5 °F 65% 29.95 in 10.0 mi WNW 10.4 mph - N/A   Clear
11:15 AM 39.2 °F 33.0 °F 27.1 °F 62% 29.95 in 10.0 mi NW 9.2 mph - N/A   Clear
11:35 AM 40.1 °F 34.7 °F 26.6 °F 59% 29.95 in 10.0 mi NW 8.1 mph - N/A   Clear
11:55 AM 41.9 °F 35.4 °F 25.0 °F 51% 29.94 in 10.0 mi NNW 11.5 mph - N/A   Clear
12:15 PM 43.2 °F 37.0 °F 23.5 °F 46% 29.94 in 10.0 mi NW 11.5 mph 18.4 mph N/A   Clear
12:35 PM 44.8 °F 38.7 °F 22.1 °F 41% 29.94 in 10.0 mi WNW 12.7 mph 21.9 mph N/A   Clear
12:55 PM 45.7 °F 39.8 °F 20.5 °F 37% 29.93 in 10.0 mi WNW 12.7 mph 19.6 mph N/A   Clear
1:15 PM 46.9 °F - 20.7 °F 35% 29.93 in 10.0 mi WNW 12.7 mph 19.6 mph N/A   Clear
1:35 PM 48.2 °F - 19.4 °F 32% 29.92 in 10.0 mi WNW 16.1 mph 20.7 mph N/A   Clear
1:55 PM 48.6 °F - 19.0 °F 31% 29.92 in 10.0 mi NW 10.4 mph 18.4 mph N/A   Clear
2:15 PM 49.3 °F - 19.6 °F 31% 29.91 in 10.0 mi WNW 18.4 mph 24.2 mph N/A   Clear
2:35 PM 49.5 °F - 18.1 °F 29% 29.91 in 10.0 mi WNW 17.3 mph 24.2 mph N/A   Clear
2:55 PM 50.0 °F - 18.0 °F 28% 29.90 in 10.0 mi WNW 18.4 mph 21.9 mph N/A   Clear
3:15 PM 50.2 °F - 16.9 °F 27% 29.90 in 10.0 mi NW 13.8 mph 21.9 mph N/A   Clear
3:35 PM 50.5 °F - 16.9 °F 26% 29.90 in 10.0 mi WNW 13.8 mph 23.0 mph N/A   Clear
3:55 PM 50.4 °F - 16.2 °F 26% 29.90 in 10.0 mi NW 10.4 mph 19.6 mph N/A   Clear
4:15 PM 50.0 °F - 16.5 °F 26% 29.90 in 10.0 mi WNW 17.3 mph 21.9 mph N/A   Clear
4:35 PM 50.0 °F - 17.4 °F 28% 29.90 in 10.0 mi WNW 16.1 mph 20.7 mph N/A   Clear
4:55 PM 49.1 °F - 18.1 °F 29% 29.91 in 10.0 mi WNW 12.7 mph - N/A   Clear
5:15 PM 48.0 °F - 18.3 °F 31% 29.91 in 10.0 mi WNW 15.0 mph - N/A   Clear
5:35 PM 46.6 °F - 18.7 °F 33% 29.91 in 10.0 mi WNW 9.2 mph 20.7 mph N/A   Clear
5:55 PM 45.0 °F 39.7 °F 18.9 °F 35% 29.92 in 10.0 mi NW 10.4 mph - N/A   Clear
6:15 PM 43.5 °F 38.9 °F 19.6 °F 38% 29.92 in 10.0 mi WNW 8.1 mph - N/A   Clear
6:35 PM 41.5 °F 37.1 °F 20.1 °F 42% 29.93 in 10.0 mi WNW 6.9 mph - N/A   Clear
6:55 PM 39.2 °F 35.0 °F 21.2 °F 49% 29.93 in 10.0 mi WNW 5.8 mph - N/A   Clear
7:15 PM 37.6 °F 32.3 °F 21.2 °F 52% 29.94 in 10.0 mi WNW 6.9 mph - N/A   Clear
7:35 PM 36.5 °F 30.3 °F 20.7 °F 53% 29.94 in 10.0 mi WNW 8.1 mph - N/A   Clear
7:55 PM 36.5 °F 30.3 °F 21.0 °F 54% 29.94 in 10.0 mi WNW 8.1 mph - N/A   Clear
8:15 PM 34.7 °F 29.6 °F 20.8 °F 57% 29.94 in 10.0 mi WNW 5.8 mph - N/A   Clear
8:35 PM 34.7 °F 30.6 °F 20.5 °F 56% 29.94 in 10.0 mi WNW 4.6 mph - N/A   Clear
8:55 PM 35.6 °F 31.7 °F 21.2 °F 56% 29.94 in 10.0 mi WNW 4.6 mph - N/A   Clear
9:15 PM 34.0 °F 29.8 °F 21.0 °F 59% 29.94 in 10.0 mi WNW 4.6 mph - N/A   Clear
9:35 PM 33.1 °F 28.7 °F 21.2 °F 62% 29.94 in 10.0 mi WNW 4.6 mph - N/A   Clear
9:55 PM 32.0 °F 27.5 °F 21.2 °F 64% 29.94 in 10.0 mi WNW 4.6 mph - N/A   Clear
10:15 PM 32.0 °F 27.5 °F 21.6 °F 65% 29.94 in 10.0 mi WNW 4.6 mph - N/A   Clear
10:35 PM 32.2 °F 28.9 °F 21.2 °F 64% 29.94 in 10.0 mi WNW 3.5 mph - N/A   Clear
10:55 PM 32.4 °F 27.9 °F 21.2 °F 63% 29.94 in 10.0 mi WNW 4.6 mph - N/A   Clear
11:15 PM 32.4 °F 26.9 °F 21.4 °F 64% 29.94 in 10.0 mi WNW 5.8 mph - N/A   Clear
11:35 PM 32.0 °F 27.5 °F 20.8 °F 63% 29.94 in 10.0 mi WNW 4.6 mph - N/A   Clear
11:55 PM 32.0 °F 28.7 °F 20.5 °F 63% 29.94 in 10.0 mi WNW 3.5 mph - N/A   Clear